Regional Weather Roundup
Issued by NWS

Home | Current Version | Previous Version | Graphics & Text | Print | Product List | Glossary On
Versions: 1 2 3 4 5 6 7 8 9 10 11 12 13 14 15 16 17 18 19 20 21 22 23 24 25 26 27 28 29 30 31 32 33 34 35 36 37 38 39 40 41 42 43 44 45 46 47 48 49 50
000
ASUS45 KPSR 011300
RWRAZ

PRELIMINARY ARIZONA REGIONAL HOURLY WEATHER ROUNDUP
NATIONAL WEATHER SERVICE PHOENIX AZ
600 AM MST WED OCT 01 2014

NOTE: FAIR INDICATES FEW OR NO CLOUDS BELOW 12,000 FEET WITH NO
SIGNIFICANT WEATHER AND/OR OBSTRUCTIONS TO VISIBILITY.

AZZ001>003-036-011400-
NORTHWEST ARIZONA

CITY           SKY/WX    TMP DP  RH WIND       PRES   REMARKS
KINGMAN        CLEAR     57  40  52 SE9       29.88R
$$

AZZ004>008-015-016-018-011400-
NORTH CENTRAL ARIZONA

CITY           SKY/WX    TMP DP  RH WIND       PRES   REMARKS
GRAND CANYON   CLEAR     34  32  92 CALM      30.04R FOG
PRESCOTT       CLEAR     47  37  68 SW3       29.98R
FLAGSTAFF      CLEAR     36  32  85 CALM      30.06R
PAYSON         CLEAR     48  41  76 CALM      30.00R
$$

AZZ009>014-017-011400-
NORTHEAST ARIZONA

CITY           SKY/WX    TMP DP  RH WIND       PRES   REMARKS
WINSLOW        NOT AVBL
SAINT JOHNS    CLEAR     44  34  67 S9        30.00R
WINDOW ROCK    CLEAR     38  34  85 CALM      30.03R
$$

AZZ023-011400-
GREATER PHOENIX AREA

CITY           SKY/WX    TMP DP  RH WIND       PRES   REMARKS
PHOENIX        PTCLDY    69  50  50 E13       29.77R
GLENDALE       CLEAR     64  55  72 N3        29.79
LUKE AFB       CLEAR     62  52  71 CALM      29.78R
DEER VALLEY    CLEAR     66  46  48 NE8       29.79R
SCOTTSDALE     CLEAR     64  52  64 CALM      29.80R
MESA-FALCON    CLEAR     64  48  55 N8        29.79
MESA-GATEWAY   CLEAR     59  52  77 SE5       29.82R
CHANDLER       CLEAR     61  50  67 E7        29.79
$$

AZZ027-028-011400-
SOUTHWEST MARICOPA COUNTY AND PINAL COUNTY

CITY           SKY/WX    TMP DP  RH WIND       PRES   REMARKS
CASA GRANDE    CLEAR     61  39  44 CALM      29.80S
$$

AZZ503-504-507>509-011400-
SOUTHEAST ARIZONA

CITY           SKY/WX    TMP DP  RH WIND       PRES   REMARKS
TUCSON         CLEAR     62  43  49 SE9       29.89R
DAVIS-MONTHAN  CLEAR     61  42  50 E2        29.88R
RYAN FIELD       N/A     61  43  51 SE6       29.88
NOGALES        CLEAR     48  40  73 NE5       29.94S
SIERRA VISTA   CLEAR     54  37  54 W7        29.97R
SAFFORD        CLEAR     51  37  58 SE3       29.89R
$$

AZZ020-021-025-026-031-011400-
SOUTHWEST ARIZONA

CITY           SKY/WX    TMP DP  RH WIND       PRES   REMARKS
YUMA           CLEAR     72  46  39 NE6       29.71R
$$

CAZ031-033-041-043-047-048-061-011400-
SOUTHERN CALIFORNIA

CITY           SKY/WX    TMP DP  RH WIND       PRES   REMARKS
DOWNTOWN L.A.  PTCLDY    66  62  87 E3        29.78R FOG
L.A. AIRPORT   PTCLDY    63  61  93 CALM      29.79R
SAN DIEGO      CLOUDY    67  61  81 S9        29.80R
BURBANK        CLEAR     62  49  62 CALM      29.79R
ONTARIO        CLEAR     63  56  78 CALM      29.81R
RIVERSIDE      CLEAR     61  54  77 CALM      29.81R
PALM SPRINGS   CLEAR     71  48  43 NW7       29.73R
EL CENTRO NAS  CLEAR     65  45  48 S6        29.69R
IMPERIAL       CLEAR     68  46  45 CALM      29.68R
BLYTHE         CLEAR     66  46  48 N7        29.71R
$$

NVZ020-UTZ003-011400-
SOUTHERN NEVADA-UTAH

CITY           SKY/WX    TMP DP  RH WIND       PRES   REMARKS
LAS VEGAS      NOT AVBL
SALT LAKE CITY MOCLDY    48  40  73 W6        30.01R
$$

NMZ009-TXZ055-011400-
NEW MEXICO-WEST TEXAS

CITY           SKY/WX    TMP DP  RH WIND       PRES   REMARKS
ALBUQUERQUE    CLEAR     52  36  54 NE3       29.99R
EL PASO        CLEAR     65  37  35 S8        29.91R
$$


........................KEY........................
SKY/WX - SKY CONDITION/WEATHER
TMP    - TEMPERATURE IN FAHRENHEIT
DP     - DEW POINT IN FAHRENHEIT
RH     - RELATIVE HUMIDITY IN PERCENT
WIND   - DIRECTION AND SPEED IN MILES PER HOUR (MPH)
VRB    - VARIABLE WIND DIRECTION
PRES   - MEAN SEA LEVEL PRESSURE IN INCHES OF MERCURY
         F - FALLING PRESSURE   R - RISING PRESSURE
         S - STEADY PRESSURE
VSB    - VISIBILITY IN MILES
HX     - HEAT INDEX IN FAHRENHEIT
WCI    - WIND CHILL INDEX IN FAHRENHEIT
TC     - TEMPERATURE IN CELSIUS WHICH IS ALSO KNOWN AS
         TEMPERATURE IN CENTIGRADE
AFB    - AIR FORCE BASE
         LUKE AFB IS LUKE AIR FORCE BASE
         DAVIS-MONTHAN IS DAVIS-MONTHAN AIR FORCE BASE
NAS    - NAVAL AIR STATION
         EL CENTRO NAS IS EL CENTRO NAVAL AIR STATION
N/A    - NOT AVAILABLE


USA.gov is the U.S. government's official web portal to all federal, state and local government web resources and services.